Location: Hilton Head Island
(32.2163°N, 80.7526°W)
Time: 19:01:43
(UTC-05:00)

Tiangong - Pass Details

Date: 29 January 2026
Orbit: 386 x 392 km, 41.5° (Epoch: 10 February)

Event Time Altitude Azimuth Distance (km) Brightness Sun altitude
Exits shadow 05:08:55 15° 61° (ENE) 1,162 0.9 -27.6°
Drops below altitude 10° 05:09:47 10° 72° (ENE) 1,428 1.6 -27.4°
Sets 05:12:08 0° 87° (E) 2,283 3.1 -26.9°
